Location: Drignac
(45.1667°N, 2.0333°E)
Time: 13:56:06
(UTC+00:00)

MetOp-A - Pass Details

Date: 29 March 2020
Orbit: 819 x 821 km, 98.5° (Epoch: 02 June)

Event Time Altitude Azimuth Distance (km) Brightness Sun altitude
Exits shadow 19:42:29 16° 151° (SSE) 2,043 5.8 -15.5°
Maximum altitude 19:46:48 65° 72° (ENE) 899 4.1 -16.2°
Drops below altitude 10° 19:52:07 10° 352° (N) 2,428 7.0 -17.1°
Sets 19:54:30 0° 349° (N) 3,365 7.8 -17.4°
